Lapse_Rate
6.8 6.5 6.5 6.5 6.5 6.5 6.5 6.5 6.5 6.5 6.5 6.5 6.5 6.5 6.5 5.6 5.0 4.6 3.9 3.6 3.8 3.8 3.8 3.4 3.1 2.7 2.1 1.4 1.0 0.6 0.4 0.5 0.2 0.1 0.4 -0.1 0.3 0.0 0.3 1.2 2.1 2.3 2.3 2.5
6.5 6.5 6.5 6.5 6.5 6.5 6.5 6.5 6.5 6.5 6.5 6.5 6.5 6.5 6.5 6.4 6.1 4.2 4.2 3.4 3.3 3.6 3.1 3.1 2.8 2.2 1.5 1.5 0.9 0.6 0.9 0.9 0.8 0.4 0.1 0.1 0.1 -0.1 -0.2 0.6 1.6 2.2 2.4 2.8
6.5 6.5 6.5 6.5 6.5 6.5 6.5 6.5 6.5 6.5 6.5 6.5 6.5 6.5 6.5 6.5 6.2 5.1 5.0 3.5 3.4 2.8 2.8 2.8 2.6 1.9 1.1 1.2 0.7 1.2 1.3 1.3 1.2 1.1 0.5 0.6 0.3 0.2 0.6 0.8 0.6 1.8 2.6 2.9
6.5 6.5 6.5 6.5 6.5 6.5 6.5 6.5 6.5 6.5 6.5 6.5 6.5 6.5 6.5 6.5 6.5 6.2 4.5 3.3 2.3 2.6 2.8 2.2 2.2 1.8 0.8 1.2 0.7 1.4 1.8 1.7 1.8 1.1 1.7 1.9 1.2 1.2 0.7 0.4 0.3 0.6 2.4 2.6
6.5 6.5 6.5 6.5 6.5 6.5 6.5 6.5 6.5 6.5 6.5 6.5 6.5 6.5 6.5 6.5 6.5 6.5 4.9 3.0 2.1 1.6 1.7 2.1 1.8 1.9 1.7 1.3 1.0 1.3 1.9 2.3 2.5 2.1 2.0 1.4 1.5 0.6 0.3 0.4 0.6 0.9 1.4 2.6
6.5 6.5 6.5 6.5 6.5 6.5 6.5 6.5 6.5 6.5 6.5 6.5 6.5 6.5 6.5 6.5 6.5 6.5 5.6 3.3 2.2 1.4 1.7 1.7 1.8 1.7 2.0 1.2 1.3 1.8 2.7 3.4 3.2 2.7 2.4 2.2 1.7 1.2 0.6 0.8 0.5 0.6 1.0 1.4
6.5 6.5 6.5 6.3 6.5 6.5 6.5 6.5 6.5 6.5 6.5 6.5 6.5 6.5 6.5 6.5 6.5 6.3 5.9 3.1 2.4 1.9 1.5 1.7 2.2 2.3 2.6 2.8 2.6 2.9 3.0 3.2 2.4 2.4 2.5 2.2 1.6 1.1 0.9 0.8 0.6 0.7 1.0 1.6
6.5 6.5 6.5 6.5 6.5 6.5 6.5 6.5 6.5 6.5 6.5 6.5 6.5 6.5 6.5 6.5 5.6 4.0 3.3 2.5 2.3 1.9 1.7 2.2 2.1 1.8 2.2 2.4 2.0 1.9 2.1 2.2 1.7 1.5 1.4 1.0 1.0 0.5 0.6 0.8 0.8 0.8 1.1 1.2
6.5 6.5 6.5 6.5 6.5 6.5 6.5 6.5 6.5 6.5 6.5 6.5 6.5 6.5 6.5 6.5 6.5 5.7 3.9 3.4 2.7 2.1 1.7 2.1 2.0 1.9 1.9 2.0 1.7 1.6 1.6 1.2 0.8 0.6 0.2 0.2 -0.1 0.1 -0.0 0.3 0.6 0.6 0.9 2.0
6.5 6.5 6.5 6.5 6.4 6.5 6.5 6.5 6.5 6.5 6.5 6.5 6.5 6.5 6.5 6.5 6.5 6.5 6.0 4.0 2.8 2.4 2.2 1.8 1.9 2.0 1.8 1.7 0.9 0.7 0.8 0.7 0.3 0.0 -0.4 -0.1 -0.4 -0.2 -0.1 0.1 0.6 0.8 0.9 1.4
6.5 6.5 6.5 6.5 6.5 6.5 6.5 6.5 6.5 6.5 6.5 6.5 6.5 6.5 6.5 6.5 6.5 6.5 5.5 3.5 2.7 2.4 1.9 1.9 2.2 2.1 1.8 1.1 0.7 0.4 0.4 0.5 0.1 -0.2 -0.3 -0.6 -0.5 -0.2 -0.1 -0.1 -0.0 0.2 0.5 1.1
6.5 6.5 6.5 6.5 6.5 6.5 6.5 6.5 6.5 6.5 6.5 6.5 6.5 6.5 6.5 6.5 6.0 4.7 4.3 3.5 2.6 2.2 1.9 2.1 2.0 1.8 1.5 1.3 1.0 0.5 0.2 0.1 0.0 -0.0 -0.1 -0.1 -0.0 -0.1 -0.2 0.0 0.2 0.4 0.6 1.0
6.5 6.5 6.5 6.5 6.5 6.5 6.5 6.5 6.5 6.5 6.5 6.5 6.5 6.5 6.5 6.3 6.1 4.7 3.8 3.4 2.8 2.3 2.3 2.2 2.0 2.2 1.7 1.1 0.8 0.7 0.7 0.8 0.7 0.5 0.3 0.3 0.0 -0.1 -0.3 -0.2 0.1 0.7 0.8 1.0
6.0 6.5 6.5 6.5 6.5 6.5 6.5 6.5 6.5 6.5 6.5 6.5 6.5 6.5 6.5 6.5 6.5 5.5 3.9 3.1 2.5 2.6 2.8 2.3 1.9 1.7 1.6 1.4 1.3 1.3 1.4 1.1 1.0 0.8 0.6 0.5 0.1 0.0 -0.0 0.2 0.4 0.6 0.7 1.0
6.5 6.5 6.5 6.5 6.5 6.5 6.5 6.5 6.5 6.5 6.5 6.5 6.5 6.5 6.5 6.5 6.5 5.1 3.7 2.9 3.0 3.3 3.3 2.7 1.9 1.6 1.4 1.3 1.5 1.7 1.6 1.5 1.2 0.8 0.5 0.3 0.3 0.4 0.4 0.3 0.3 0.5 0.6 0.9
6.4 6.5 6.5 6.5 6.5 6.5 6.5 6.5 6.5 6.5 6.5 6.5 6.5 6.5 6.5 4.8 3.9 4.5 3.9 3.7 4.0 3.8 3.3 2.7 2.5 2.0 1.8 1.5 1.2 1.6 1.8 1.7 1.0 0.7 0.6 0.6 0.5 0.4 0.2 0.1 0.1 0.3 0.2 0.3
6.5 6.5 6.5 6.5 6.5 6.5 6.5 6.5 6.5 6.5 6.5 6.5 6.5 6.5 6.6 6.5 6.0 5.1 3.9 3.7 3.6 3.3 2.9 2.6 2.1 1.8 1.8 2.0 2.2 2.2 2.2 1.7 1.4 1.3 1.2 1.2 1.0 1.0 0.7 0.5 0.6 0.4 0.2 0.1
6.5 6.5 6.5 6.5 6.5 6.5 6.5 6.5 6.5 6.5 6.5 6.5 6.5 6.5 6.0 5.4 3.5 3.4 3.1 3.1 2.4 2.4 2.1 1.9 1.6 1.7 1.5 1.3 1.7 1.6 1.7 1.6 1.5 1.5 1.4 1.1 1.0 0.9 0.8 0.6 0.4 0.3 0.5 0.5
6.3 6.5 6.5 6.5 6.5 6.5 6.5 6.5 6.5 6.5 6.5 6.5 6.5 6.5 5.7 4.1 4.4 4.9 2.6 1.8 1.8 1.2 1.0 1.0 1.0 1.2 0.9 1.2 1.6 1.7 1.6 1.6 1.9 1.7 1.4 1.1 0.8 0.8 0.6 0.5 0.2 0.5 0.3 0.4
6.5 6.5 6.5 6.5 6.5 6.5 6.5 6.5 6.1 6.4 6.5 6.4 5.8 6.3 5.7 5.3 6.5 6.5 2.6 1.4 0.9 0.9 0.8 0.8 1.0 1.3 1.3 1.5 1.5 1.8 1.8 1.7 2.3 2.1 1.8 1.2 1.1 1.1 1.1 0.9 0.7 1.0 0.9 1.5
6.5 6.5 6.5 6.5 6.5 6.5 6.5 6.1 5.4 6.5 6.5 6.1 5.9 4.4 4.2 6.4 4.4 1.9 0.5 1.5 0.7 0.8 1.2 1.3 1.4 1.5 2.0 1.8 1.8 2.1 2.0 2.5 2.5 2.1 2.0 1.9 1.7 1.5 1.6 1.2 1.5 1.4 1.5 1.5
6.5 6.5 6.5 6.5 6.5 6.5 5.1 6.2 6.5 5.9 5.1 5.4 5.5 4.1 3.5 3.1 1.3 0.6 1.4 1.5 1.6 1.7 2.0 1.7 1.5 1.9 2.2 2.1 2.3 2.6 2.7 2.9 2.4 2.2 2.2 2.0 1.8 2.1 2.6 1.7 1.4 1.7 1.8 1.6
6.5 6.5 6.5 6.5 6.5 5.8 3.5 5.2 2.7 2.8 3.6 4.6 4.4 3.4 2.5 1.7 1.8 1.8 2.2 2.0 2.0 2.0 1.9 1.9 2.0 2.5 2.6 2.5 2.6 3.0 3.2 2.9 2.8 2.4 2.2 1.9 1.8 2.1 2.3 1.9 1.7 1.5 1.6 1.9
6.5 5.6 6.5 6.5 6.5 6.3 4.3 2.6 2.9 2.3 3.0 3.4 3.6 2.3 1.3 1.7 1.6 2.0 2.1 2.3 2.4 2.4 2.4 2.5 2.6 3.1 3.2 3.0 3.2 3.3 3.4 3.1 2.7 2.2 2.1 2.0 2.0 2.5 2.1 2.1 2.3 1.7 1.6 1.9
6.0 6.1 6.5 6.5 6.3 5.8 4.1 2.5 2.2 2.8 3.3 3.9 2.8 2.2 2.0 2.2 2.0 2.1 2.5 2.6 3.0 3.1 3.4 3.3 3.3 3.3 3.5 3.1 3.2 3.2 3.4 3.0 2.6 2.1 2.1 2.3 2.3 2.1 1.9 2.0 1.8 1.5 1.8 2.6
5.2 6.5 6.5 6.5 5.1 5.2 4.3 3.3 2.2 2.5 2.5 2.5 2.2 2.7 2.7 2.6 2.5 2.4 2.5 2.7 3.0 3.3 3.5 3.6 3.5 3.5 3.7 3.5 3.5 3.6 3.3 2.7 2.3 2.1 2.2 2.1 2.1 1.7 1.7 1.7 1.8 3.7 4.7 5.1
Wind_Speed
2 3 5 8 11 7 7 6 6 2 1 5 2 6 7 5 5 7 7 8 7 9 7 7 8 8 7 6 7 7 6 5 2 1 1 1 1 2 2 4 5 4 4 4
3 3 6 5 8 6 7 6 3 1 1 4 3 3 2 1 3 7 10 8 9 5 6 6 7 7 8 7 7 6 6 5 4 2 2 2 1 2 3 5 8 6 6 5
3 1 7 3 2 9 3 8 4 6 2 5 6 4 1 2 1 4 3 6 5 9 10 8 7 7 4 5 6 6 6 6 4 4 2 1 1 2 2 2 3 5 6 7
3 9 5 5 6 3 4 2 6 8 5 4 3 4 4 5 6 6 6 7 8 8 5 5 7 5 6 5 3 4 4 5 3 4 2 2 2 1 2 2 2 5 10 10
1 4 6 6 4 3 2 4 6 4 5 4 3 4 5 3 7 8 9 8 8 7 7 8 8 7 5 4 3 3 3 3 2 3 3 2 2 2 2 3 5 5 7 9
2 1 3 0 4 3 1 6 9 5 4 3 2 4 5 6 10 6 4 7 8 7 7 6 5 6 4 3 3 3 3 1 1 1 2 2 4 5 4 4 4 4 3 4
6 5 2 2 4 3 6 6 3 4 3 5 3 2 8 5 6 8 11 9 9 8 8 7 7 6 5 4 2 1 1 2 4 3 2 2 3 3 5 5 3 5 4 3
4 5 6 4 1 2 4 4 5 6 4 3 1 6 7 4 4 7 7 9 8 8 7 7 6 6 6 5 5 5 5 4 5 5 4 4 4 2 3 3 3 4 3 4
3 2 1 1 1 1 5 2 1 6 3 3 3 6 7 2 1 5 9 8 8 7 7 8 7 6 6 5 5 5 5 5 6 5 5 5 5 5 5 6 4 3 5 4
2 3 3 2 1 1 3 1 3 3 3 3 4 5 5 6 8 6 8 9 7 6 7 7 6 6 4 5 4 5 5 5 3 4 3 3 4 5 5 4 6 6 6 5
2 3 3 1 3 5 2 2 1 2 4 4 2 6 5 6 8 12 8 8 9 8 7 7 6 5 5 4 5 4 4 4 4 4 3 4 4 5 4 4 5 5 6 6
0 4 2 2 3 2 1 4 4 4 3 0 3 6 2 5 8 9 9 8 7 8 8 7 7 6 5 5 4 4 3 3 2 2 3 4 4 5 5 5 6 6 6 6
1 1 3 7 4 3 4 5 5 4 2 4 4 5 2 2 5 8 10 9 8 8 8 7 6 6 5 4 3 3 3 3 3 3 4 5 6 6 6 6 6 6 6 6
1 2 4 7 5 4 4 4 4 4 4 4 6 6 3 3 7 7 8 10 9 9 9 7 6 6 5 4 3 3 2 1 2 4 4 5 5 5 5 5 6 6 6 6
3 3 3 5 6 5 6 5 7 8 5 5 4 7 6 8 12 15 12 8 8 8 7 7 7 6 5 5 3 3 2 1 1 4 5 5 5 5 5 6 6 6 6 6
2 2 1 4 3 6 6 8 9 9 6 9 5 16 9 6 6 6 9 12 12 12 11 9 8 8 7 7 6 4 2 2 2 4 3 3 4 5 5 5 6 6 6 6
3 4 3 4 3 4 8 13 15 6 6 8 9 10 6 7 9 14 14 14 15 12 11 11 10 7 6 6 5 4 3 3 4 3 4 4 5 5 5 5 5 5 6 5
4 3 3 3 3 4 6 3 3 11 7 12 5 5 7 7 4 4 4 13 10 10 10 9 7 6 7 6 5 4 4 4 4 3 3 4 5 5 5 5 6 6 4 5
3 3 2 3 3 7 4 3 6 7 7 9 13 6 3 2 3 2 4 7 10 9 8 7 7 6 6 7 6 6 4 4 3 2 2 3 3 4 5 6 6 5 4 4
4 3 3 2 3 6 4 3 2 2 5 3 5 8 8 3 3 4 4 6 7 8 7 8 7 5 7 5 5 5 4 3 1 0 2 3 3 3 4 4 5 3 3 4
4 2 7 4 4 8 7 5 4 2 5 2 2 5 8 6 4 3 8 5 6 7 8 7 7 7 7 6 6 5 4 3 3 2 1 2 3 4 4 4 3 4 5 5
8 8 4 3 3 8 6 4 6 5 2 2 2 4 6 3 5 7 7 8 8 8 7 7 6 6 5 6 5 5 4 3 2 2 2 3 3 3 3 4 5 4 4 5
4 7 6 10 7 4 7 5 6 5 4 4 3 4 7 8 6 8 7 8 8 8 7 5 6 6 5 6 5 5 3 2 2 2 3 3 4 4 3 3 5 4 4 4
4 4 3 2 6 10 8 6 5 7 7 5 4 6 8 8 8 8 8 8 7 7 7 6 7 6 5 5 5 3 1 2 2 4 4 3 4 5 4 3 3 3 4 4
4 6 5 5 6 3 7 8 8 7 5 5 5 8 10 8 8 7 8 8 7 6 5 5 6 6 6 5 3 3 2 2 3 3 4 4 3 4 5 4 4 4 5 5
5 7 5 7 7 5 5 3 5 9 9 9 8 5 4 7 9 7 6 6 6 6 5 5 5 5 5 4 3 3 3 2 3 4 4 4 3 4 3 4 5 9 11 15
Wind_Direction
192 150 192 218 208 200 129 127 132 292 265 96 136 148 171 157 156 162 178 181 183 184 191 176 165 168 166 179 179 181 168 185 145 144 241 43 301 303 298 284 290 296 314 317
166 160 225 256 223 171 116 133 120 28 2 97 160 100 321 198 169 182 183 190 192 175 162 175 174 174 180 173 183 180 189 178 187 161 181 151 197 258 262 293 305 299 295 276
103 251 316 13 39 87 52 156 168 149 95 48 105 355 231 239 217 128 193 189 192 195 185 185 177 192 178 186 192 193 195 190 189 168 116 57 15 339 327 331 318 318 298 279
45 324 4 45 64 20 127 129 141 136 101 172 48 238 267 236 227 182 174 169 192 180 168 163 172 173 192 215 212 211 196 182 178 158 138 168 191 257 263 281 291 308 312 300
353 26 14 67 328 333 150 132 134 104 91 98 352 78 260 168 230 229 205 194 187 175 154 162 180 185 200 153 178 178 165 161 156 163 170 182 243 241 275 301 314 314 309 309
18 343 70 17 302 290 313 87 47 59 85 38 267 130 265 198 200 214 193 211 182 169 161 150 140 135 135 135 138 140 145 189 255 218 222 233 265 298 316 310 311 307 306 308
356 346 19 77 335 4 51 57 26 24 5 210 284 46 247 223 226 197 190 183 176 169 161 152 145 140 128 115 83 67 83 36 30 55 35 338 303 295 286 295 295 313 314 303
124 347 352 19 91 288 42 126 149 170 183 236 36 228 252 242 281 241 171 162 158 161 157 151 147 129 113 102 91 82 77 72 50 47 25 13 9 348 315 310 311 294 275 281
125 326 243 255 156 96 281 18 193 104 35 69 219 280 299 230 28 146 142 150 162 158 153 145 133 128 123 106 88 94 89 70 46 35 23 16 4 360 339 326 310 300 301 294
127 67 322 316 350 36 78 222 43 1 130 240 282 280 236 224 203 176 164 172 157 147 141 138 138 134 118 107 99 78 74 73 49 33 25 8 350 350 343 346 347 337 323 321
132 108 278 358 203 185 52 6 104 152 147 167 176 259 216 225 205 185 180 169 164 164 158 149 143 128 119 103 92 91 78 73 40 25 8 12 358 358 358 355 340 333 322 325
47 132 158 234 329 344 212 180 152 121 223 176 148 275 271 257 201 172 182 171 171 162 160 155 150 145 131 118 112 103 77 67 36 10 17 13 9 6 7 352 339 335 331 325
16 32 50 350 352 7 241 206 165 124 85 212 135 265 306 30 156 176 166 173 172 167 162 158 147 151 151 142 126 105 70 40 18 24 28 23 18 11 1 352 345 341 341 337
115 179 183 185 204 145 219 210 203 144 136 188 216 266 253 182 176 176 182 181 175 172 167 163 162 159 156 145 125 102 76 40 33 43 39 31 16 10 1 350 352 350 349 351
141 230 216 256 240 209 211 210 186 200 202 179 272 215 257 212 197 200 188 166 166 173 165 169 163 170 158 154 153 143 125 97 87 63 48 24 8 11 2 3 359 354 357 349
155 245 348 281 288 243 263 241 220 220 218 253 248 265 212 218 151 156 186 180 184 183 183 172 172 170 177 175 176 171 157 111 99 85 69 31 19 15 6 1 358 354 349 344
168 154 109 260 335 328 289 231 211 197 209 187 203 227 169 209 202 196 192 189 190 182 175 176 177 174 167 172 156 154 159 139 100 69 32 16 6 1 357 352 357 352 343 334
157 148 150 253 3 247 243 169 187 217 238 219 259 210 203 209 208 195 203 188 178 170 167 167 166 164 166 159 154 151 144 135 116 72 29 8 4 358 352 354 351 340 333 342
153 138 214 202 206 293 285 211 179 176 274 211 227 206 213 129 77 349 186 179 173 170 163 161 160 154 152 155 161 151 137 132 106 58 13 353 351 349 352 354 345 331 339 335
85 91 153 148 212 235 237 178 169 146 287 184 175 204 169 174 172 246 168 134 124 129 142 149 153 142 144 165 151 140 141 141 141 245 311 328 338 338 330 325 326 307 321 317
150 197 209 203 242 285 247 162 155 145 247 197 211 184 162 190 198 196 133 107 127 140 149 145 147 157 170 159 148 149 163 196 210 237 277 315 329 328 321 328 317 323 326 329
166 158 193 154 193 268 149 79 177 211 205 208 185 173 180 145 141 141 131 138 146 146 143 148 145 159 167 164 155 169 196 211 217 247 306 324 323 319 325 326 324 326 329 330
206 189 180 186 210 239 212 200 210 172 181 210 199 178 171 153 175 160 159 157 159 159 156 155 156 165 180 181 177 178 221 209 250 280 292 297 308 310 311 320 323 324 330 321
255 175 213 145 232 233 226 238 234 198 204 200 198 179 171 174 169 175 161 165 166 166 163 157 156 170 180 182 190 204 224 239 242 270 286 299 315 312 316 308 289 308 309 314
197 140 199 257 283 290 270 233 220 224 221 193 181 183 187 165 184 172 173 171 167 160 155 155 167 176 194 191 204 206 225 239 278 288 287 285 276 287 299 292 274 280 262 233
195 188 190 245 219 208 225 233 199 202 208 206 170 174 191 181 176 161 166 163 156 160 157 163 179 180 199 201 221 254 265 259 276 290 285 278 278 281 273 280 298 288 269 280